Flag for United Kingdom Weather past 2 weeks in Plymouth, England, United Kingdom

Now
39 °F

Passing clouds.


Feels Like: 28 °F
Forecast: 36 / 42 °F
Wind: 24 mph from North

Location: Culdrose

Current Time: Feb 1, 2015 at 7:22:57 AM

Latest Report: Feb 1, 2015 at 6:50 AM


Visibility: N/A

Pressure: 29.71 "Hg

Humidity: 70%

Dew point: 30 °F

Location of PlymouthLocation

Historic Weather in Plymouth — Graph

°F

Plymouth temperature yesterday

Maximum temperature yesterday: 43 °F (at 11:50 AM)
Minimum temperature yesterday: 37 °F (at 3:50 AM)
Average temperature yesterday: 41 °F

Past Weeks' High & Low Weather Summary

 TemperatureHumidityPressure
High50 °F (Jan 23, 3:50 PM)100% (Jan 22, 7:50 PM)30.54 "Hg (Jan 22, 7:50 PM)
Low32 °F (Jan 19, 4:50 AM)57% (Jan 18, 1:50 PM)29.09 "Hg (Jan 30, 2:50 AM)
Average43 °F80%29.91 "Hg
* Reported Jan 17 5:50 AM — Feb 1 5:50 AM, Plymouth, Weather by CustomWeather, © 2014

Note: Actual official high and low records may vary slightly from our data, if they occured in-between our weather recording intervals... More about our weather records

Advertising

Plymouth weather history for previous 24 hours

 ConditionsComfort  
Time TempWeatherWind HumidityBarometerVisibility
5:50 AM
Feb 1
39 °FPassing clouds.22 mph70%29.71 "HgN/A
4:50 AM39 °FScattered showers. Passing clouds.25 mph65%29.68 "HgN/A
3:50 AM41 °FScattered showers. Passing clouds.24 mph61%29.68 "HgN/A
2:50 AM41 °FPassing clouds.22 mph61%29.68 "HgN/A
1:50 AM39 °FPassing clouds.22 mph65%29.65 "HgN/A
12:50 AM41 °FPassing clouds.20 mph66%29.65 "HgN/A
11:50 PM
Jan 31
41 °FPassing clouds.21 mph66%29.65 "HgN/A
10:50 PM41 °FPassing clouds.22 mph61%29.65 "HgN/A
9:50 PM41 °FPassing clouds.23 mph61%29.62 "HgN/A
8:50 PM41 °FPassing clouds.21 mph61%29.62 "HgN/A
7:50 PM41 °FPassing clouds.25 mph66%29.59 "HgN/A
6:50 PM41 °FPassing clouds.25 mph61%29.56 "HgN/A
5:50 PM43 °FScattered showers. Passing clouds.25 mph61%29.50 "HgN/A
4:50 PM43 °FScattered showers. Broken clouds.24 mph61%29.47 "HgN/A
3:50 PM43 °FScattered showers. Broken clouds.24 mph66%29.45 "HgN/A
2:50 PM43 °FBroken clouds.25 mph66%29.42 "HgN/A
1:50 PM43 °FPartly sunny.25 mph66%29.39 "HgN/A
12:50 PM41 °FScattered showers. Broken clouds.25 mph76%29.36 "HgN/A
11:50 AM43 °FScattered showers. Broken clouds.28 mph71%29.33 "HgN/A
10:50 AM41 °FScattered showers. Broken clouds.23 mph81%29.30 "Hg5 mi
10:41 AM41 °FSprinkles. Broken clouds.23 mph81%29.30 "Hg2 mi
9:50 AM41 °FSprinkles. Broken clouds.23 mph81%29.27 "Hg4 mi
8:50 AM41 °FSprinkles. Partly sunny.21 mph76%29.24 "HgN/A
7:50 AM39 °FScattered showers. Partly cloudy.20 mph81%29.21 "HgN/A
Weather by CustomWeather, © 2014

See weather overviewHow to use our weather pages